• In Kazakhstan
  • List of Countries
  • For 7 days
  • Water Temperature
  • Satellite Maps
  • Weather Map
  • News
  • Weather Widgets
  • user-avatar
    Login

    Hourly Weather Baranovichi

    Today, 23 October, Monday

    Time Temperature Precipitation Wind Pressure Humidity
    00:00 0°C° 0 mm 3 mps 747 mmHg 82%
    01:00 0°C° 0 mm 3 mps 747 mmHg 83%
    02:00 0°C° 0 mm 3 mps 746 mmHg 85%
    03:00 0°C° 0 mm 3 mps 746 mmHg 84%
    04:00 0°C° 0 mm 3 mps 746 mmHg 84%
    05:00 0°C° 0 mm 3 mps 746 mmHg 83%
    06:00 0°C° 0 mm 3 mps 746 mmHg 83%
    07:00 -1°C° 0 mm 4 mps 746 mmHg 83%
    08:00 -1°C° 0 mm 4 mps 746 mmHg 83%
    09:00 0°C° 0 mm 4 mps 746 mmHg 78%
    10:00 +1°C° 0 mm 4 mps 746 mmHg 74%
    11:00 +4°C° 0 mm 4 mps 746 mmHg 70%
    12:00 +4°C° 0 mm 4 mps 746 mmHg 68%
    13:00 +5°C° 0 mm 4 mps 746 mmHg 65%
    14:00 +5°C° 0 mm 5 mps 747 mmHg 63%
    15:00 +5°C° 0 mm 4 mps 747 mmHg 65%
    16:00 +4°C° 0 mm 4 mps 747 mmHg 67%
    17:00 +3°C° 0 mm 3 mps 747 mmHg 69%
    18:00 +3°C° 0 mm 4 mps 748 mmHg 70%
    19:00 +3°C° 0 mm 4 mps 748 mmHg 71%
    20:00 +1°C° 0 mm 4 mps 748 mmHg 71%
    21:00 +1°C° 0 mm 4 mps 749 mmHg 73%
    22:00 0°C° 0 mm 4 mps 749 mmHg 74%
    23:00 0°C° 0 mm 4 mps 750 mmHg 76%

    Tomorrow, 24 October, Tuesday

    Time Temperature Precipitation Wind Pressure Humidity
    00:00 0°C° 0 mm 4 mps 750 mmHg 77%
    01:00 0°C° 0 mm 3 mps 751 mmHg 78%
    02:00 0°C° 0 mm 3 mps 751 mmHg 80%
    03:00 0°C° 0 mm 3 mps 751 mmHg 80%
    04:00 -1°C° 0 mm 3 mps 752 mmHg 81%
    05:00 -1°C° 0 mm 3 mps 752 mmHg 82%
    06:00 -1°C° 0 mm 3 mps 752 mmHg 81%
    07:00 -1°C° 0 mm 3 mps 753 mmHg 80%
    08:00 -1°C° 0 mm 3 mps 753 mmHg 79%
    09:00 0°C° 0 mm 3 mps 754 mmHg 73%
    10:00 +1°C° 0 mm 3 mps 754 mmHg 67%
    11:00 +3°C° 0 mm 4 mps 754 mmHg 62%
    12:00 +3°C° 0 mm 3 mps 754 mmHg 60%
    13:00 +4°C° 0 mm 3 mps 755 mmHg 58%
    14:00 +5°C° 0 mm 3 mps 755 mmHg 56%
    15:00 +3°C° 0 mm 3 mps 755 mmHg 60%
    16:00 +3°C° 0 mm 2 mps 755 mmHg 65%
    17:00 +2°C° 0 mm 2 mps 755 mmHg 70%
    18:00 +2°C° 0 mm 2 mps 755 mmHg 72%
    19:00 +1°C° 0 mm 2 mps 756 mmHg 75%
    20:00 -1°C° 0 mm 2 mps 756 mmHg 77%
    21:00 -1°C° 0 mm 2 mps 756 mmHg 78%
    22:00 -1°C° 0 mm 2 mps 756 mmHg 80%
    23:00 -2°C° 0 mm 2 mps 757 mmHg 81%

    Day after tomorrow, 25 October, Wednesday

    Time Temperature Precipitation Wind Pressure Humidity
    00:00 -2°C° 0 mm 2 mps 757 mmHg 81%
    01:00 -2°C° 0 mm 2 mps 757 mmHg 82%
    02:00 -2°C° 0 mm 2 mps 757 mmHg 83%
    03:00 -2°C° 0 mm 2 mps 757 mmHg 82%
    04:00 -2°C° 0 mm 2 mps 757 mmHg 82%
    05:00 -2°C° 0 mm 2 mps 757 mmHg 82%
    06:00 -2°C° 0 mm 2 mps 757 mmHg 80%
    07:00 -2°C° 0 mm 3 mps 757 mmHg 78%
    08:00 -2°C° 0 mm 3 mps 757 mmHg 76%
    09:00 -1°C° 0 mm 4 mps 757 mmHg 71%
    10:00 0°C° 0 mm 4 mps 756 mmHg 65%
    11:00 +1°C° 0 mm 4 mps 756 mmHg 59%
    12:00 +3°C° 0 mm 4 mps 756 mmHg 57%
    13:00 +3°C° 0 mm 4 mps 755 mmHg 55%
    14:00 +4°C° 0 mm 4 mps 755 mmHg 52%
    15:00 +3°C° 0 mm 4 mps 754 mmHg 55%
    16:00 +3°C° 0 mm 4 mps 754 mmHg 58%
    17:00 +1°C° 0 mm 4 mps 753 mmHg 61%
    18:00 +1°C° 0.4 mm 5 mps 753 mmHg 63%
    19:00 +1°C° 0.4 mm 5 mps 752 mmHg 64%
    20:00 +1°C° 0.4 mm 6 mps 752 mmHg 66%
    21:00 +1°C° 0.3 mm 6 mps 751 mmHg 69%
    22:00 +1°C° 0.3 mm 6 mps 750 mmHg 73%
    23:00 0°C° 0.3 mm 7 mps 749 mmHg 76%

    26 October, Thursday

    Time Temperature Precipitation Wind Pressure Humidity
    00:00 +1°C° 1.4 mm 6 mps 749 mmHg 81%
    01:00 +2°C° 1.4 mm 5 mps 748 mmHg 85%
    02:00 +2°C° 1.4 mm 5 mps 748 mmHg 89%
    03:00 +3°C° 0 mm 4 mps 748 mmHg 91%
    04:00 +4°C° 0 mm 4 mps 747 mmHg 93%
    05:00 +4°C° 0 mm 3 mps 747 mmHg 95%
    06:00 +5°C° 0 mm 3 mps 747 mmHg 96%
    07:00 +5°C° 0 mm 3 mps 747 mmHg 96%
    08:00 +7°C° 0 mm 3 mps 747 mmHg 97%
    09:00 +7°C° 0 mm 4 mps 747 mmHg 94%
    10:00 +7°C° 0 mm 4 mps 747 mmHg 92%
    11:00 +8°C° 0 mm 4 mps 747 mmHg 90%
    12:00 +8°C° 0 mm 4 mps 747 mmHg 88%
    13:00 +8°C° 0 mm 5 mps 747 mmHg 85%
    14:00 +9°C° 0 mm 5 mps 746 mmHg 83%
    15:00 +8°C° 0 mm 5 mps 746 mmHg 85%
    16:00 +8°C° 0 mm 4 mps 746 mmHg 87%
    17:00 +7°C° 0 mm 4 mps 745 mmHg 89%
    18:00 +7°C° 0 mm 4 mps 745 mmHg 90%
    19:00 +7°C° 0 mm 4 mps 745 mmHg 90%
    20:00 +7°C° 0 mm 4 mps 745 mmHg 91%
    21:00 +7°C° 0 mm 4 mps 744 mmHg 91%
    22:00 +6°C° 0 mm 4 mps 744 mmHg 92%
    23:00 +6°C° 0 mm 4 mps 743 mmHg 92%

    27 October, Friday

    Time Temperature Precipitation Wind Pressure Humidity
    00:00 +6°C° 0 mm 4 mps 743 mmHg 93%
    01:00 +6°C° 0 mm 4 mps 743 mmHg 93%
    02:00 +6°C° 0 mm 4 mps 742 mmHg 94%
    03:00 +6°C° 0 mm 4 mps 742 mmHg 95%
    04:00 +6°C° 0 mm 4 mps 741 mmHg 95%
    05:00 +6°C° 0 mm 4 mps 741 mmHg 95%
    06:00 +6°C° 0 mm 4 mps 741 mmHg 94%
    07:00 +6°C° 0 mm 4 mps 740 mmHg 94%
    08:00 +6°C° 0 mm 4 mps 740 mmHg 93%
    09:00 +7°C° 0.1 mm 4 mps 740 mmHg 88%
    10:00 +8°C° 0.1 mm 4 mps 739 mmHg 84%
    11:00 +8°C° 0.1 mm 4 mps 739 mmHg 79%
    12:00 +10°C° 0.2 mm 4 mps 739 mmHg 78%
    13:00 +10°C° 0.2 mm 4 mps 738 mmHg 77%
    14:00 +10°C° 0.2 mm 4 mps 738 mmHg 76%
    15:00 +8°C° 0.1 mm 4 mps 738 mmHg 80%
    16:00 +8°C° 0.1 mm 3 mps 737 mmHg 84%
    17:00 +7°C° 0.1 mm 3 mps 737 mmHg 87%
    18:00 +7°C° 0 mm 3 mps 737 mmHg 89%
    19:00 +5°C° 0 mm 3 mps 737 mmHg 90%
    20:00 +5°C° 0 mm 3 mps 737 mmHg 91%
    21:00 +5°C° 0 mm 3 mps 737 mmHg 92%
    22:00 +4°C° 0 mm 3 mps 737 mmHg 94%
    23:00 +4°C° 0 mm 3 mps 737 mmHg 95%

    28 October, Saturday

    Time Temperature Precipitation Wind Pressure Humidity
    00:00 +4°C° 0 mm 3 mps 737 mmHg 95%
    01:00 +4°C° 0 mm 3 mps 737 mmHg 95%
    02:00 +5°C° 0 mm 3 mps 737 mmHg 95%
    03:00 +4°C° 0.1 mm 3 mps 736 mmHg 94%
    04:00 +4°C° 0.1 mm 3 mps 736 mmHg 94%
    05:00 +4°C° 0.1 mm 3 mps 736 mmHg 93%
    06:00 +4°C° 0 mm 4 mps 736 mmHg 92%
    07:00 +3°C° 0 mm 4 mps 736 mmHg 91%
    08:00 +3°C° 0 mm 4 mps 736 mmHg 90%
    09:00 +3°C° 0 mm 5 mps 736 mmHg 85%
    10:00 +5°C° 0 mm 5 mps 736 mmHg 81%
    11:00 +5°C° 0 mm 5 mps 735 mmHg 76%
    12:00 +6°C° 0.1 mm 5 mps 735 mmHg 76%
    13:00 +6°C° 0.1 mm 5 mps 734 mmHg 75%
    14:00 +6°C° 0.1 mm 5 mps 733 mmHg 74%
    15:00 +6°C° 0.1 mm 4 mps 733 mmHg 77%
    16:00 +5°C° 0.1 mm 4 mps 732 mmHg 80%
    17:00 +5°C° 0.1 mm 3 mps 731 mmHg 83%
    18:00 +5°C° 0.3 mm 3 mps 731 mmHg 84%
    19:00 +5°C° 0.3 mm 4 mps 730 mmHg 85%
    20:00 +5°C° 0.3 mm 4 mps 729 mmHg 86%
    21:00 +5°C° 0.3 mm 4 mps 729 mmHg 87%
    22:00 +5°C° 0.3 mm 4 mps 728 mmHg 89%
    23:00 +5°C° 0.3 mm 3 mps 728 mmHg 90%

    29 October, Sunday

    Time Temperature Precipitation Wind Pressure Humidity
    00:00 +5°C° 0.2 mm 3 mps 727 mmHg 91%
    01:00 +4°C° 0.2 mm 3 mps 727 mmHg 92%
    02:00 +4°C° 0.2 mm 3 mps 727 mmHg 93%
    03:00 +4°C° 0.2 mm 3 mps 727 mmHg 94%
    04:00 +4°C° 0.2 mm 3 mps 727 mmHg 94%
    05:00 +5°C° 0.2 mm 2 mps 727 mmHg 94%
    06:00 +4°C° 0.1 mm 3 mps 728 mmHg 94%
    07:00 +4°C° 0.1 mm 3 mps 728 mmHg 94%
    08:00 +4°C° 0.1 mm 3 mps 729 mmHg 94%
    09:00 +5°C° 0.1 mm 3 mps 730 mmHg 92%
    10:00 +5°C° 0.1 mm 3 mps 730 mmHg 89%
    11:00 +7°C° 0.1 mm 3 mps 731 mmHg 86%
    12:00 +6°C° 0 mm 4 mps 731 mmHg 85%
    13:00 +6°C° 0 mm 4 mps 732 mmHg 83%
    14:00 +6°C° 0 mm 4 mps 732 mmHg 81%
    15:00 +6°C° 0.1 mm 4 mps 733 mmHg 82%
    16:00 +5°C° 0.1 mm 4 mps 733 mmHg 83%
    17:00 +5°C° 0.1 mm 4 mps 734 mmHg 84%
    18:00 +5°C° 0 mm 4 mps 734 mmHg 85%
    19:00 +4°C° 0 mm 3 mps 735 mmHg 87%
    20:00 +4°C° 0 mm 3 mps 735 mmHg 88%
    21:00 +4°C° 0 mm 3 mps 736 mmHg 89%
    22:00 +4°C° 0 mm 3 mps 736 mmHg 90%
    23:00 +4°C° 0 mm 3 mps 736 mmHg 90%
    Show more